contact:dominique.lefevre@mio.osupytheas.fr, maurice.libes@osupytheas.fr, didier.mallarino@osupytheas.fr
Project:EMSO http://www.emso-fr.org/EMSO-France
Depth: 2436.0 m
Title:EMSO Ligure Ouest : Data MII capteur MICROCAT
DateTime_Computer,Latitude,Longitude,Temperature,Conductivity,Pressure,DateTime_Instrument
DateTime_Computer,Latitude,Longitude,degC,S m-1,dbar,DateTime_Instrument
2020-08-22T00:01:06Z,42.805,6.029,13.2976,4.59978,2470.194,2020-8-22T02:01:55Z
2020-08-22T00:04:09Z,42.805,6.029,13.2976,4.59978,2470.194,2020-8-22T02:04:59Z
2020-08-22T00:07:12Z,42.805,6.029,13.2980,4.59978,2470.156,2020-8-22T02:08:02Z
2020-08-22T00:10:15Z,42.805,6.029,13.2974,4.59978,2470.133,2020-8-22T02:11:05Z
2020-08-22T00:13:19Z,42.805,6.029,13.2976,4.59977,2470.18,2020-8-22T02:14:08Z
2020-08-22T00:16:22Z,42.805,6.029,13.2979,4.59977,2470.156,2020-8-22T02:17:12Z
2020-08-22T00:19:25Z,42.805,6.029,13.2977,4.59981,2470.18,2020-8-22T02:20:15Z
2020-08-22T00:22:28Z,42.805,6.029,13.2977,4.59980,2470.18,2020-8-22T02:23:18Z
2020-08-22T00:25:31Z,42.805,6.029,13.2977,4.59979,2470.18,2020-8-22T02:26:21Z
2020-08-22T00:28:35Z,42.805,6.029,13.2982,4.59978,2470.156,2020-8-22T02:29:24Z
2020-08-22T00:31:38Z,42.805,6.029,13.2978,4.59979,2470.217,2020-8-22T02:32:28Z
2020-08-22T00:34:41Z,42.805,6.029,13.2982,4.59976,2470.133,2020-8-22T02:35:31Z
2020-08-22T00:37:44Z,42.805,6.029,13.2979,4.59981,2470.156,2020-8-22T02:38:34Z
2020-08-22T00:40:48Z,42.805,6.029,13.2979,4.59978,2470.147,2020-8-22T02:41:37Z
2020-08-22T00:43:51Z,42.805,6.029,13.2976,4.59981,2470.18,2020-8-22T02:44:41Z
2020-08-22T00:46:54Z,42.805,6.029,13.2974,4.59979,2470.147,2020-8-22T02:47:44Z
2020-08-22T00:49:57Z,42.805,6.029,13.2975,4.59978,2470.18,2020-8-22T02:50:47Z
2020-08-22T00:53:01Z,42.805,6.029,13.2978,4.59979,2470.11,2020-8-22T02:53:51Z
2020-08-22T00:56:04Z,42.805,6.029,13.2979,4.59979,2470.133,2020-8-22T02:56:54Z
2020-08-22T00:59:08Z,42.805,6.029,13.2979,4.59978,2470.156,2020-8-22T02:59:57Z
2020-08-22T01:02:11Z,42.805,6.029,13.2974,4.59978,2470.133,2020-8-22T03:03:01Z
2020-08-22T01:05:14Z,42.805,6.029,13.2978,4.59979,2470.18,2020-8-22T03:06:04Z
2020-08-22T01:08:17Z,42.805,6.029,13.2977,4.59978,2470.133,2020-8-22T03:09:07Z
2020-08-22T01:11:21Z,42.805,6.029,13.2976,4.59978,2470.11,2020-8-22T03:12:10Z
2020-08-22T01:14:24Z,42.805,6.029,13.2976,4.59977,2470.11,2020-8-22T03:15:14Z
2020-08-22T01:17:27Z,42.805,6.029,13.2979,4.59980,2470.133,2020-8-22T03:18:17Z
2020-08-22T01:20:30Z,42.805,6.029,13.2976,4.59978,2470.133,2020-8-22T03:21:20Z
2020-08-22T01:23:34Z,42.805,6.029,13.2976,4.59981,2470.133,2020-8-22T03:24:23Z
2020-08-22T01:26:37Z,42.805,6.029,13.2974,4.59978,2470.1,2020-8-22T03:27:27Z
2020-08-22T01:29:40Z,42.805,6.029,13.2976,4.59978,2470.147,2020-8-22T03:30:30Z
2020-08-22T01:32:43Z,42.805,6.029,13.2976,4.59979,2470.11,2020-8-22T03:33:33Z
2020-08-22T01:35:47Z,42.805,6.029,13.2977,4.59978,2470.11,2020-8-22T03:36:36Z
2020-08-22T01:38:50Z,42.805,6.029,13.2976,4.59979,2470.11,2020-8-22T03:39:40Z
2020-08-22T01:41:53Z,42.805,6.029,13.2976,4.59978,2470.1,2020-8-22T03:42:43Z
2020-08-22T01:44:56Z,42.805,6.029,13.2973,4.59977,2470.077,2020-8-22T03:45:46Z
2020-08-22T01:48:00Z,42.805,6.029,13.2977,4.59976,2470.087,2020-8-22T03:48:49Z
2020-08-22T01:51:03Z,42.805,6.029,13.2976,4.59979,2470.11,2020-8-22T03:51:52Z
2020-08-22T01:54:06Z,42.805,6.029,13.2977,4.59976,2470.11,2020-8-22T03:54:56Z
2020-08-22T01:57:09Z,42.805,6.029,13.2983,4.59976,2470.11,2020-8-22T03:57:59Z
2020-08-22T02:00:13Z,42.805,6.029,13.2980,4.59980,2470.124,2020-8-22T04:01:02Z
2020-08-22T02:03:16Z,42.805,6.029,13.2976,4.59978,2470.063,2020-8-22T04:04:06Z
2020-08-22T02:06:19Z,42.805,6.029,13.2978,4.59977,2470.077,2020-8-22T04:07:09Z
2020-08-22T02:09:22Z,42.805,6.029,13.2976,4.59976,2470.1,2020-8-22T04:10:12Z
2020-08-22T02:12:26Z,42.805,6.029,13.2974,4.59979,2470.063,2020-8-22T04:13:16Z
2020-08-22T02:15:29Z,42.805,6.029,13.2980,4.59978,2470.077,2020-8-22T04:16:19Z
2020-08-22T02:18:32Z,42.805,6.029,13.2974,4.59978,2470.077,2020-8-22T04:19:22Z
2020-08-22T02:21:36Z,42.805,6.029,13.2975,4.59976,2470.063,2020-8-22T04:22:25Z
2020-08-22T02:24:39Z,42.805,6.029,13.2975,4.59978,2470.087,2020-8-22T04:25:29Z
2020-08-22T02:27:42Z,42.805,6.029,13.2980,4.59980,2470.087,2020-8-22T04:28:32Z
2020-08-22T02:30:45Z,42.805,6.029,13.2976,4.59977,2470.063,2020-8-22T04:31:35Z
2020-08-22T02:33:48Z,42.805,6.029,13.2979,4.59978,2470.04,2020-8-22T04:34:38Z
2020-08-22T02:36:52Z,42.805,6.029,13.2971,4.59977,2470.04,2020-8-22T04:37:41Z
2020-08-22T02:39:55Z,42.805,6.029,13.2979,4.59985,2470.063,2020-8-22T04:40:45Z
2020-08-22T02:42:58Z,42.805,6.029,13.2974,4.59978,2470.063,2020-8-22T04:43:48Z
2020-08-22T02:46:01Z,42.805,6.029,13.2976,4.59978,2470.077,2020-8-22T04:46:51Z
2020-08-22T02:49:05Z,42.805,6.029,13.2975,4.59978,2470.063,2020-8-22T04:49:54Z
2020-08-22T02:52:08Z,42.805,6.029,13.2976,4.59977,2470.053,2020-8-22T04:52:58Z
2020-08-22T02:55:11Z,42.805,6.029,13.2972,4.59978,2470.063,2020-8-22T04:56:01Z
2020-08-22T02:58:14Z,42.805,6.029,13.2983,4.59978,2470.063,2020-8-22T04:59:04Z
2020-08-22T03:01:18Z,42.805,6.029,13.2978,4.59980,2470.017,2020-8-22T05:02:07Z
2020-08-22T03:04:21Z,42.805,6.029,13.2977,4.59978,2470.04,2020-8-22T05:05:11Z
2020-08-22T03:07:24Z,42.805,6.029,13.2977,4.59978,2470.04,2020-8-22T05:08:14Z
2020-08-22T03:10:28Z,42.805,6.029,13.2976,4.59978,2470.053,2020-8-22T05:11:17Z
2020-08-22T03:13:31Z,42.805,6.029,13.2979,4.59978,2470.017,2020-8-22T05:14:21Z
2020-08-22T03:16:34Z,42.805,6.029,13.2976,4.59978,2470.017,2020-8-22T05:17:24Z
2020-08-22T03:19:37Z,42.805,6.029,13.2976,4.59978,2470.017,2020-8-22T05:20:27Z
2020-08-22T03:22:41Z,42.805,6.029,13.2976,4.59978,2470.053,2020-8-22T05:23:30Z
2020-08-22T03:25:44Z,42.805,6.029,13.2976,4.59979,2470.04,2020-8-22T05:26:34Z
2020-08-22T03:28:47Z,42.805,6.029,13.2977,4.59978,2470.087,2020-8-22T05:29:37Z
2020-08-22T03:31:50Z,42.805,6.029,13.2977,4.59978,2470.04,2020-8-22T05:32:40Z
2020-08-22T03:34:54Z,42.805,6.029,13.2976,4.59978,2470.04,2020-8-22T05:35:43Z
2020-08-22T03:37:57Z,42.805,6.029,13.2976,4.59977,2469.993,2020-8-22T05:38:47Z
2020-08-22T03:41:00Z,42.805,6.029,13.2976,4.59978,2470.017,2020-8-22T05:41:50Z
2020-08-22T03:44:04Z,42.805,6.029,13.2979,4.59981,2470.04,2020-8-22T05:44:54Z
2020-08-22T03:47:07Z,42.805,6.029,13.2979,4.59977,2470.04,2020-8-22T05:47:57Z
2020-08-22T03:50:11Z,42.805,6.029,13.2976,4.59977,2469.993,2020-8-22T05:51:00Z
2020-08-22T03:53:14Z,42.805,6.029,13.2978,4.59979,2469.993,2020-8-22T05:54:03Z
2020-08-22T03:56:17Z,42.805,6.029,13.2979,4.59978,2470.017,2020-8-22T05:57:07Z
2020-08-22T03:59:20Z,42.805,6.029,13.2977,4.59976,2470.053,2020-8-22T06:00:10Z
2020-08-22T04:02:24Z,42.805,6.029,13.2974,4.59980,2470.017,2020-8-22T06:03:13Z
2020-08-22T04:05:27Z,42.805,6.029,13.2977,4.59978,2470.053,2020-8-22T06:06:17Z
2020-08-22T04:08:30Z,42.805,6.029,13.2976,4.59979,2470.04,2020-8-22T06:09:20Z
2020-08-22T04:11:34Z,42.805,6.029,13.2974,4.59979,2470.053,2020-8-22T06:12:23Z
2020-08-22T04:14:37Z,42.805,6.029,13.2975,4.59978,2470.017,2020-8-22T06:15:27Z
2020-08-22T04:17:40Z,42.805,6.029,13.2974,4.59978,2470.04,2020-8-22T06:18:30Z
2020-08-22T04:20:43Z,42.805,6.029,13.2976,4.59978,2469.993,2020-8-22T06:21:33Z
2020-08-22T04:23:46Z,42.805,6.029,13.2978,4.59978,2470.017,2020-8-22T06:24:36Z
2020-08-22T04:26:50Z,42.805,6.029,13.2977,4.59978,2470.04,2020-8-22T06:27:39Z
2020-08-22T04:29:53Z,42.805,6.029,13.2976,4.59979,2470.053,2020-8-22T06:30:43Z
2020-08-22T04:32:56Z,42.805,6.029,13.2976,4.59979,2470.017,2020-8-22T06:33:46Z
2020-08-22T04:35:59Z,42.805,6.029,13.2976,4.59979,2470.063,2020-8-22T06:36:49Z
2020-08-22T04:39:03Z,42.805,6.029,13.2973,4.59977,2470.04,2020-8-22T06:39:52Z
2020-08-22T04:42:06Z,42.805,6.029,13.2974,4.59981,2470.053,2020-8-22T06:42:55Z
2020-08-22T04:45:09Z,42.805,6.029,13.2977,4.59978,2470.03,2020-8-22T06:45:59Z
2020-08-22T04:48:12Z,42.805,6.029,13.2976,4.59978,2470.053,2020-8-22T06:49:02Z
2020-08-22T04:51:16Z,42.805,6.029,13.2974,4.59976,2470.053,2020-8-22T06:52:05Z
2020-08-22T04:54:19Z,42.805,6.029,13.2978,4.59980,2470.077,2020-8-22T06:55:09Z
2020-08-22T04:57:22Z,42.805,6.029,13.2977,4.59977,2470.053,2020-8-22T06:58:12Z
2020-08-22T05:00:25Z,42.805,6.029,13.2978,4.59978,2470.04,2020-8-22T07:01:15Z
2020-08-22T05:03:28Z,42.805,6.029,13.2978,4.59977,2470.026,2020-8-22T07:04:18Z
2020-08-22T05:06:32Z,42.805,6.029,13.2976,4.59978,2470.04,2020-8-22T07:07:22Z
2020-08-22T05:09:35Z,42.805,6.029,13.2977,4.59978,2470.063,2020-8-22T07:10:25Z
2020-08-22T05:12:38Z,42.805,6.029,13.2976,4.59978,2470.053,2020-8-22T07:13:28Z
2020-08-22T05:15:41Z,42.805,6.029,13.2975,4.59976,2470.04,2020-8-22T07:16:31Z
2020-08-22T05:18:45Z,42.805,6.029,13.2977,4.59976,2470.04,2020-8-22T07:19:34Z
2020-08-22T05:21:48Z,42.805,6.029,13.2979,4.59978,2470.04,2020-8-22T07:22:38Z
2020-08-22T05:24:51Z,42.805,6.029,13.2975,4.59979,2470.063,2020-8-22T07:25:41Z
2020-08-22T05:27:55Z,42.805,6.029,13.2977,4.59977,2470.053,2020-8-22T07:28:44Z
2020-08-22T05:30:58Z,42.805,6.029,13.2978,4.59978,2470.04,2020-8-22T07:31:47Z
2020-08-22T05:34:01Z,42.805,6.029,13.2974,4.59979,2470.077,2020-8-22T07:34:51Z
2020-08-22T05:37:04Z,42.805,6.029,13.2975,4.59979,2470.063,2020-8-22T07:37:54Z
2020-08-22T05:40:08Z,42.805,6.029,13.2978,4.59980,2470.087,2020-8-22T07:40:57Z
2020-08-22T05:43:11Z,42.805,6.029,13.2974,4.59978,2470.04,2020-8-22T07:44:01Z
2020-08-22T05:46:14Z,42.805,6.029,13.2981,4.59980,2470.017,2020-8-22T07:47:04Z
2020-08-22T05:49:17Z,42.805,6.029,13.2976,4.59978,2470.063,2020-8-22T07:50:07Z
2020-08-22T05:52:21Z,42.805,6.029,13.2974,4.59978,2470.049,2020-8-22T07:53:10Z
2020-08-22T05:55:24Z,42.805,6.029,13.2974,4.59979,2470.049,2020-8-22T07:56:13Z
2020-08-22T05:58:27Z,42.805,6.029,13.2976,4.59978,2470.1,2020-8-22T07:59:17Z
2020-08-22T06:01:30Z,42.805,6.029,13.2974,4.59978,2470.077,2020-8-22T08:02:20Z
2020-08-22T06:04:34Z,42.805,6.029,13.2974,4.59979,2470.077,2020-8-22T08:05:23Z
2020-08-22T06:07:37Z,42.805,6.029,13.2974,4.59978,2470.077,2020-8-22T08:08:27Z
2020-08-22T06:10:40Z,42.805,6.029,13.2974,4.59978,2470.087,2020-8-22T08:11:30Z
2020-08-22T06:13:43Z,42.805,6.029,13.2976,4.59978,2470.087,2020-8-22T08:14:33Z
2020-08-22T06:16:47Z,42.805,6.029,13.2976,4.59979,2470.124,2020-8-22T08:17:36Z
2020-08-22T06:19:50Z,42.805,6.029,13.2973,4.59978,2470.087,2020-8-22T08:20:40Z
2020-08-22T06:22:53Z,42.805,6.029,13.2976,4.59978,2470.087,2020-8-22T08:23:43Z
2020-08-22T06:25:57Z,42.805,6.029,13.2976,4.59979,2470.087,2020-8-22T08:26:46Z
2020-08-22T06:29:00Z,42.805,6.029,13.2973,4.59978,2470.1,2020-8-22T08:29:50Z
2020-08-22T06:32:03Z,42.805,6.029,13.2977,4.59978,2470.096,2020-8-22T08:32:53Z
2020-08-22T06:35:07Z,42.805,6.029,13.2976,4.59978,2470.11,2020-8-22T08:35:56Z
2020-08-22T06:38:10Z,42.805,6.029,13.2977,4.59979,2470.1,2020-8-22T08:39:00Z
2020-08-22T06:41:13Z,42.805,6.029,13.2979,4.59980,2470.077,2020-8-22T08:42:03Z
2020-08-22T06:44:16Z,42.805,6.029,13.2976,4.59979,2470.087,2020-8-22T08:45:06Z
2020-08-22T06:47:20Z,42.805,6.029,13.2978,4.59978,2470.133,2020-8-22T08:48:09Z
2020-08-22T06:50:23Z,42.805,6.029,13.2976,4.59981,2470.087,2020-8-22T08:51:13Z
2020-08-22T06:53:26Z,42.805,6.029,13.2979,4.59978,2470.124,2020-8-22T08:54:16Z
2020-08-22T06:56:30Z,42.805,6.029,13.2976,4.59979,2470.11,2020-8-22T08:57:19Z
2020-08-22T06:59:33Z,42.805,6.029,13.2976,4.59979,2470.124,2020-8-22T09:00:22Z
2020-08-22T07:02:36Z,42.805,6.029,13.2976,4.59980,2470.11,2020-8-22T09:03:26Z
2020-08-22T07:05:39Z,42.805,6.029,13.2974,4.59978,2470.133,2020-8-22T09:06:29Z
2020-08-22T07:08:42Z,42.805,6.029,13.2980,4.59980,2470.143,2020-8-22T09:09:32Z
2020-08-22T07:11:46Z,42.805,6.029,13.2976,4.59978,2470.171,2020-8-22T09:12:35Z
2020-08-22T07:14:49Z,42.805,6.029,13.2983,4.59976,2470.171,2020-8-22T09:15:39Z
2020-08-22T07:17:52Z,42.805,6.029,13.2976,4.59978,2470.147,2020-8-22T09:18:42Z
2020-08-22T07:20:55Z,42.805,6.029,13.2979,4.59978,2470.156,2020-8-22T09:21:45Z
2020-08-22T07:23:59Z,42.805,6.029,13.2976,4.59977,2470.156,2020-8-22T09:24:48Z
2020-08-22T07:27:02Z,42.805,6.029,13.2974,4.59978,2470.171,2020-8-22T09:27:52Z
2020-08-22T07:30:05Z,42.805,6.029,13.2976,4.59978,2470.18,2020-8-22T09:30:55Z
2020-08-22T07:33:08Z,42.805,6.029,13.2980,4.59980,2470.133,2020-8-22T09:33:58Z
2020-08-22T07:36:12Z,42.805,6.029,13.2975,4.59977,2470.156,2020-8-22T09:37:02Z
2020-08-22T07:39:15Z,42.805,6.029,13.2976,4.59978,2470.171,2020-8-22T09:40:05Z
2020-08-22T07:42:18Z,42.805,6.029,13.2974,4.59978,2470.18,2020-8-22T09:43:08Z
2020-08-22T07:45:21Z,42.805,6.029,13.2977,4.59979,2470.217,2020-8-22T09:46:11Z
2020-08-22T07:48:25Z,42.805,6.029,13.2977,4.59978,2470.18,2020-8-22T09:49:14Z
2020-08-22T07:51:28Z,42.805,6.029,13.2977,4.59978,2470.171,2020-8-22T09:52:18Z
2020-08-22T07:54:31Z,42.805,6.029,13.2975,4.59976,2470.194,2020-8-22T09:55:21Z
2020-08-22T07:57:34Z,42.805,6.029,13.2979,4.59978,2470.156,2020-8-22T09:58:24Z
2020-08-22T08:00:38Z,42.805,6.029,13.2976,4.59978,2470.203,2020-8-22T10:01:28Z
2020-08-22T08:03:41Z,42.805,6.029,13.2974,4.59978,2470.18,2020-8-22T10:04:31Z
2020-08-22T08:06:44Z,42.805,6.029,13.2979,4.59978,2470.203,2020-8-22T10:07:34Z
2020-08-22T08:09:48Z,42.805,6.029,13.2975,4.59979,2470.194,2020-8-22T10:10:37Z
2020-08-22T08:12:51Z,42.805,6.029,13.2978,4.59978,2470.24,2020-8-22T10:13:41Z
2020-08-22T08:15:54Z,42.805,6.029,13.2982,4.59980,2470.217,2020-8-22T10:16:44Z
2020-08-22T08:18:58Z,42.805,6.029,13.2976,4.59979,2470.217,2020-8-22T10:19:47Z
2020-08-22T08:22:01Z,42.805,6.029,13.2979,4.59978,2470.227,2020-8-22T10:22:51Z
2020-08-22T08:25:04Z,42.805,6.029,13.2975,4.59978,2470.217,2020-8-22T10:25:54Z
2020-08-22T08:28:07Z,42.805,6.029,13.2975,4.59978,2470.203,2020-8-22T10:28:57Z
2020-08-22T08:31:11Z,42.805,6.029,13.2976,4.59978,2470.194,2020-8-22T10:32:00Z
2020-08-22T08:34:14Z,42.805,6.029,13.2979,4.59978,2470.217,2020-8-22T10:35:04Z
2020-08-22T08:37:17Z,42.805,6.029,13.2976,4.59978,2470.203,2020-8-22T10:38:07Z
2020-08-22T08:40:20Z,42.805,6.029,13.2976,4.59980,2470.18,2020-8-22T10:41:10Z
2020-08-22T08:43:24Z,42.805,6.029,13.2979,4.59978,2470.194,2020-8-22T10:44:13Z
2020-08-22T08:46:27Z,42.805,6.029,13.2977,4.59978,2470.203,2020-8-22T10:47:17Z
2020-08-22T08:49:30Z,42.805,6.029,13.2980,4.59979,2470.203,2020-8-22T10:50:20Z
2020-08-22T08:52:33Z,42.805,6.029,13.2980,4.59978,2470.194,2020-8-22T10:53:23Z
2020-08-22T08:55:37Z,42.805,6.029,13.2978,4.59978,2470.227,2020-8-22T10:56:26Z
2020-08-22T08:58:40Z,42.805,6.029,13.2976,4.59980,2470.24,2020-8-22T10:59:30Z
2020-08-22T09:01:43Z,42.805,6.029,13.2975,4.59978,2470.24,2020-8-22T11:02:33Z
2020-08-22T09:04:46Z,42.805,6.029,13.2978,4.59979,2470.217,2020-8-22T11:05:36Z
2020-08-22T09:07:50Z,42.805,6.029,13.2979,4.59980,2470.217,2020-8-22T11:08:39Z
2020-08-22T09:10:53Z,42.805,6.029,13.2978,4.59979,2470.227,2020-8-22T11:11:43Z
2020-08-22T09:13:56Z,42.805,6.029,13.2979,4.59978,2470.203,2020-8-22T11:14:46Z
2020-08-22T09:16:59Z,42.805,6.029,13.2974,4.59982,2470.227,2020-8-22T11:17:49Z
2020-08-22T09:20:03Z,42.805,6.029,13.2974,4.59980,2470.194,2020-8-22T11:20:52Z
2020-08-22T09:23:06Z,42.805,6.029,13.2977,4.59981,2470.217,2020-8-22T11:23:56Z
2020-08-22T09:26:09Z,42.805,6.029,13.2976,4.59978,2470.203,2020-8-22T11:26:59Z
2020-08-22T09:29:13Z,42.805,6.029,13.2979,4.59980,2470.203,2020-8-22T11:30:02Z
2020-08-22T09:32:16Z,42.805,6.029,13.2976,4.59980,2470.213,2020-8-22T11:33:06Z
2020-08-22T09:35:19Z,42.805,6.029,13.2978,4.59980,2470.194,2020-8-22T11:36:09Z
2020-08-22T09:38:22Z,42.805,6.029,13.2977,4.59978,2470.227,2020-8-22T11:39:12Z
2020-08-22T09:41:26Z,42.805,6.029,13.2982,4.59978,2470.217,2020-8-22T11:42:15Z
2020-08-22T09:44:29Z,42.805,6.029,13.2981,4.59979,2470.203,2020-8-22T11:45:19Z
2020-08-22T09:47:32Z,42.805,6.029,13.2979,4.59981,2470.147,2020-8-22T11:48:22Z
2020-08-22T09:50:35Z,42.805,6.029,13.2979,4.59981,2470.156,2020-8-22T11:51:25Z
2020-08-22T09:56:42Z,42.805,6.029,13.2979,4.59978,2470.203,2020-8-22T11:57:31Z
2020-08-22T09:59:45Z,42.805,6.029,13.2977,4.59980,2470.18,2020-8-22T12:00:35Z
2020-08-22T10:02:48Z,42.805,6.029,13.2976,4.59978,2470.18,2020-8-22T12:03:38Z
2020-08-22T10:05:52Z,42.805,6.029,13.2977,4.59978,2470.18,2020-8-22T12:06:41Z
2020-08-22T10:08:55Z,42.805,6.029,13.2977,4.59980,2470.217,2020-8-22T12:09:45Z
2020-08-22T10:11:58Z,42.805,6.029,13.2977,4.59978,2470.217,2020-8-22T12:12:48Z
2020-08-22T10:15:01Z,42.805,6.029,13.2981,4.59982,2470.203,2020-8-22T12:15:51Z
2020-08-22T10:18:05Z,42.805,6.029,13.2976,4.59980,2470.217,2020-8-22T12:18:54Z
2020-08-22T10:21:08Z,42.805,6.029,13.2978,4.59978,2470.18,2020-8-22T12:21:57Z
2020-08-22T10:24:11Z,42.805,6.029,13.2974,4.59978,2470.217,2020-8-22T12:25:01Z
2020-08-22T10:27:14Z,42.805,6.029,13.2977,4.59978,2470.194,2020-8-22T12:28:04Z
2020-08-22T10:30:17Z,42.805,6.029,13.2976,4.59980,2470.18,2020-8-22T12:31:07Z
2020-08-22T10:33:21Z,42.805,6.029,13.2979,4.59979,2470.18,2020-8-22T12:34:10Z
2020-08-22T10:36:24Z,42.805,6.029,13.2977,4.59979,2470.18,2020-8-22T12:37:14Z
2020-08-22T10:39:27Z,42.805,6.029,13.2978,4.59981,2470.156,2020-8-22T12:40:17Z
2020-08-22T10:42:31Z,42.805,6.029,13.2982,4.59979,2470.18,2020-8-22T12:43:20Z
2020-08-22T10:45:34Z,42.805,6.029,13.2976,4.59980,2470.194,2020-8-22T12:46:23Z
2020-08-22T10:48:37Z,42.805,6.029,13.2974,4.59981,2470.133,2020-8-22T12:49:27Z
2020-08-22T10:51:40Z,42.805,6.029,13.2973,4.59981,2470.156,2020-8-22T12:52:30Z
2020-08-22T10:54:44Z,42.805,6.029,13.2977,4.59978,2470.156,2020-8-22T12:55:33Z
2020-08-22T10:57:47Z,42.805,6.029,13.2974,4.59978,2470.18,2020-8-22T12:58:37Z
2020-08-22T11:00:50Z,42.805,6.029,13.2977,4.59980,2470.171,2020-8-22T13:01:40Z
2020-08-22T11:03:53Z,42.805,6.029,13.2981,4.59978,2470.18,2020-8-22T13:04:43Z
2020-08-22T11:06:57Z,42.805,6.029,13.2976,4.59980,2470.18,2020-8-22T13:07:46Z
2020-08-22T11:10:00Z,42.805,6.029,13.2975,4.59980,2470.156,2020-8-22T13:10:50Z
2020-08-22T11:13:03Z,42.805,6.029,13.2980,4.59979,2470.194,2020-8-22T13:13:53Z
2020-08-22T11:16:06Z,42.805,6.029,13.2978,4.59978,2470.194,2020-8-22T13:16:56Z
2020-08-22T11:19:10Z,42.805,6.029,13.2976,4.59978,2470.156,2020-8-22T13:19:59Z
2020-08-22T11:22:13Z,42.805,6.029,13.2974,4.59980,2470.171,2020-8-22T13:23:03Z
2020-08-22T11:25:16Z,42.805,6.029,13.2977,4.59981,2470.18,2020-8-22T13:26:06Z
2020-08-22T11:28:20Z,42.805,6.029,13.2981,4.59978,2470.194,2020-8-22T13:29:09Z
2020-08-22T11:31:23Z,42.805,6.029,13.2975,4.59978,2470.119,2020-8-22T13:32:13Z
2020-08-22T11:34:26Z,42.805,6.029,13.2974,4.59979,2470.156,2020-8-22T13:35:16Z
2020-08-22T11:37:30Z,42.805,6.029,13.2975,4.59978,2470.133,2020-8-22T13:38:19Z
2020-08-22T11:40:33Z,42.805,6.029,13.2974,4.59983,2470.18,2020-8-22T13:41:23Z
2020-08-22T11:43:36Z,42.805,6.029,13.2975,4.59978,2470.156,2020-8-22T13:44:26Z
2020-08-22T11:46:39Z,42.805,6.029,13.2976,4.59980,2470.156,2020-8-22T13:47:29Z
2020-08-22T11:49:43Z,42.805,6.029,13.2978,4.59978,2470.133,2020-8-22T13:50:33Z
2020-08-22T11:52:46Z,42.805,6.029,13.2979,4.59978,2470.18,2020-8-22T13:53:36Z
2020-08-22T11:55:50Z,42.805,6.029,13.2976,4.59980,2470.133,2020-8-22T13:56:39Z
2020-08-22T11:58:53Z,42.805,6.029,13.2979,4.59978,2470.133,2020-8-22T13:59:43Z
2020-08-22T12:01:56Z,42.805,6.029,13.2976,4.59978,2470.133,2020-8-22T14:02:46Z
2020-08-22T12:04:59Z,42.805,6.029,13.2973,4.59978,2470.147,2020-8-22T14:05:49Z
2020-08-22T12:08:02Z,42.805,6.029,13.2978,4.59978,2470.133,2020-8-22T14:08:52Z
2020-08-22T12:11:06Z,42.805,6.029,13.2975,4.59978,2470.11,2020-8-22T14:11:55Z
2020-08-22T12:14:09Z,42.805,6.029,13.2976,4.59976,2470.124,2020-8-22T14:14:59Z
2020-08-22T12:17:12Z,42.805,6.029,13.2976,4.59978,2470.11,2020-8-22T14:18:02Z
2020-08-22T12:20:16Z,42.805,6.029,13.2977,4.59976,2470.1,2020-8-22T14:21:05Z
2020-08-22T12:23:19Z,42.805,6.029,13.2979,4.59979,2470.087,2020-8-22T14:24:09Z
2020-08-22T12:26:22Z,42.805,6.029,13.2978,4.59978,2470.11,2020-8-22T14:27:12Z
2020-08-22T12:29:25Z,42.805,6.029,13.2974,4.59979,2470.124,2020-8-22T14:30:15Z
2020-08-22T12:32:29Z,42.805,6.029,13.2979,4.59980,2470.087,2020-8-22T14:33:19Z
2020-08-22T12:35:32Z,42.805,6.029,13.2978,4.59978,2470.11,2020-8-22T14:36:22Z
2020-08-22T12:38:35Z,42.805,6.029,13.2981,4.59978,2470.11,2020-8-22T14:39:25Z
2020-08-22T12:41:39Z,42.805,6.029,13.2976,4.59979,2470.11,2020-8-22T14:42:28Z
2020-08-22T12:44:42Z,42.805,6.029,13.2976,4.59981,2470.1,2020-8-22T14:45:32Z
2020-08-22T12:47:45Z,42.805,6.029,13.2976,4.59978,2470.11,2020-8-22T14:48:35Z
2020-08-22T12:50:48Z,42.805,6.029,13.2977,4.59978,2470.087,2020-8-22T14:51:38Z
2020-08-22T12:53:51Z,42.805,6.029,13.2976,4.59979,2470.1,2020-8-22T14:54:41Z
2020-08-22T12:56:55Z,42.805,6.029,13.2977,4.59978,2470.063,2020-8-22T14:57:44Z
2020-08-22T12:59:58Z,42.805,6.029,13.2979,4.59979,2470.1,2020-8-22T15:00:48Z
2020-08-22T13:03:01Z,42.805,6.029,13.2974,4.59978,2470.1,2020-8-22T15:03:51Z
2020-08-22T13:06:04Z,42.805,6.029,13.2979,4.59978,2470.077,2020-8-22T15:06:54Z
2020-08-22T13:09:08Z,42.805,6.029,13.2979,4.59982,2470.077,2020-8-22T15:09:58Z
2020-08-22T13:12:11Z,42.805,6.029,13.2980,4.59977,2470.077,2020-8-22T15:13:01Z
2020-08-22T13:15:14Z,42.805,6.029,13.2977,4.59976,2470.077,2020-8-22T15:16:04Z
2020-08-22T13:18:17Z,42.805,6.029,13.2974,4.59980,2470.077,2020-8-22T15:19:07Z
2020-08-22T13:21:21Z,42.805,6.029,13.2979,4.59978,2470.063,2020-8-22T15:22:10Z
2020-08-22T13:24:24Z,42.805,6.029,13.2974,4.59981,2470.063,2020-8-22T15:25:14Z
2020-08-22T13:27:27Z,42.805,6.029,13.2978,4.59978,2470.077,2020-8-22T15:28:17Z
2020-08-22T13:30:30Z,42.805,6.029,13.2978,4.59986,2470.063,2020-8-22T15:31:20Z
2020-08-22T13:33:34Z,42.805,6.029,13.2976,4.59978,2470.077,2020-8-22T15:34:23Z
2020-08-22T13:36:37Z,42.805,6.029,13.2978,4.59978,2470.063,2020-8-22T15:37:27Z
2020-08-22T13:39:40Z,42.805,6.029,13.2975,4.59979,2470.063,2020-8-22T15:40:30Z
2020-08-22T13:42:43Z,42.805,6.029,13.2975,4.59979,2470.063,2020-8-22T15:43:33Z
2020-08-22T13:45:47Z,42.805,6.029,13.2978,4.59978,2470.077,2020-8-22T15:46:36Z
2020-08-22T13:48:50Z,42.805,6.029,13.2974,4.59978,2470.063,2020-8-22T15:49:40Z
2020-08-22T13:51:53Z,42.805,6.029,13.2977,4.59978,2470.04,2020-8-22T15:52:43Z
2020-08-22T13:54:56Z,42.805,6.029,13.2974,4.59982,2470.053,2020-8-22T15:55:46Z
2020-08-22T13:58:00Z,42.805,6.029,13.2976,4.59978,2469.993,2020-8-22T15:58:50Z
2020-08-22T14:01:03Z,42.805,6.029,13.2976,4.59978,2470.053,2020-8-22T16:01:53Z
2020-08-22T14:04:06Z,42.805,6.029,13.2977,4.59977,2470.03,2020-8-22T16:04:56Z
2020-08-22T14:07:09Z,42.805,6.029,13.2982,4.59977,2470.017,2020-8-22T16:07:59Z
2020-08-22T14:10:13Z,42.805,6.029,13.2976,4.59981,2470.007,2020-8-22T16:11:02Z
2020-08-22T14:13:16Z,42.805,6.029,13.2985,4.59978,2470.053,2020-8-22T16:14:06Z
2020-08-22T14:16:19Z,42.805,6.029,13.2979,4.59979,2470.017,2020-8-22T16:17:09Z
2020-08-22T14:19:23Z,42.805,6.029,13.2979,4.59978,2470.017,2020-8-22T16:20:12Z
2020-08-22T14:22:26Z,42.805,6.029,13.2986,4.59978,2470.03,2020-8-22T16:23:16Z
2020-08-22T14:25:29Z,42.805,6.029,13.2980,4.59978,2470.03,2020-8-22T16:26:19Z
2020-08-22T14:28:32Z,42.805,6.029,13.2977,4.59978,2470.017,2020-8-22T16:29:22Z
2020-08-22T14:31:36Z,42.805,6.029,13.2977,4.59978,2469.993,2020-8-22T16:32:26Z
2020-08-22T14:34:39Z,42.805,6.029,13.2974,4.59978,2470.017,2020-8-22T16:35:29Z
2020-08-22T14:37:42Z,42.805,6.029,13.2976,4.59978,2470.017,2020-8-22T16:38:32Z
2020-08-22T14:40:46Z,42.805,6.029,13.2975,4.59976,2470.017,2020-8-22T16:41:35Z
2020-08-22T14:43:49Z,42.805,6.029,13.2977,4.59980,2470.007,2020-8-22T16:44:39Z
2020-08-22T14:46:52Z,42.805,6.029,13.2977,4.59979,2470.007,2020-8-22T16:47:42Z
2020-08-22T14:49:56Z,42.805,6.029,13.2979,4.59976,2470.007,2020-8-22T16:50:45Z
2020-08-22T14:52:59Z,42.805,6.029,13.2979,4.59977,2470.053,2020-8-22T16:53:49Z
2020-08-22T14:56:02Z,42.805,6.029,13.2980,4.59976,2470.017,2020-8-22T16:56:52Z
2020-08-22T14:59:05Z,42.805,6.029,13.2979,4.59977,2470.03,2020-8-22T16:59:55Z
2020-08-22T15:02:09Z,42.805,6.029,13.2977,4.59976,2470.03,2020-8-22T17:02:58Z
2020-08-22T15:05:12Z,42.805,6.029,13.2983,4.59978,2470.017,2020-8-22T17:06:02Z
2020-08-22T15:08:15Z,42.805,6.029,13.2978,4.59978,2469.993,2020-8-22T17:09:05Z
2020-08-22T15:11:18Z,42.805,6.029,13.2974,4.59978,2470.053,2020-8-22T17:12:08Z
2020-08-22T15:14:22Z,42.805,6.029,13.2977,4.59978,2470.007,2020-8-22T17:15:11Z
2020-08-22T15:17:25Z,42.805,6.029,13.2976,4.59978,2469.993,2020-8-22T17:18:15Z